Location: Newark
(45.8378°N, 5.5389°E)
Time: 11:22:01
(UTC+00:00)

YUBILEINY - Pass Details

Date: 16 December 2019
Orbit: 1478 x 1509 km, 82.5° (Epoch: 18 January)

Event Time Altitude Azimuth Distance (km) Brightness Sun altitude
Rises 04:34:46 0° 358° (N) 4,610 ? -26.4°
Reaches altitude 10° 04:41:46 10° 37° (NE) 3,626 ? -25.2°
Maximum altitude 04:43:10 10° 46° (NE) 3,594 ? -25.0°
Drops below altitude 10° 04:44:33 10° 56° (NE) 3,625 ? -24.7°
Sets 04:51:29 0° 94° (E) 4,605 ? -23.6°
